Mercury, NV

2:25 PM PDT on July 25, 2016 (GMT -0700)
Mercury

Weather History for KDRA - March, 2013

Change the Weather History Date:

Saturday, March 16, 2013

  Actual Average Record
Temperature  
Mean Temperature 68 °F 53 °F  
Max Temperature 81 °F 66 °F 86 °F (2007)
Min Temperature 55 °F 40 °F 26 °F (1991)
Degree Days  
Heating Degree Days 0    
Cooling Degree Days 3    
Growing Degree Days 18 (Base 50)    
Moisture  
Dew Point 13 °F    
Average Humidity 12    
Maximum Humidity 25    
Minimum Humidity 4    
Precipitation  
Precipitation 0.00 in 0.02 in 0.24 in (2003)
Month to date precipitation 0.41  
Year to date precipitation 2.04  
Sea Level Pressure  
Sea Level Pressure 29.76 in    
Wind  
Wind Speed 6 mph (NNE)    
Max Wind Speed 14 mph    
Max Gust Speed 21 mph    
Visibility 10 miles    
Events      
T = Trace of Precipitation, MM = Missing Value Source: NWS Daily Summary

Daily Weather History Graph

Daily Weather History Graph

Search for Another Location

Airport or City:

Trip Planner

Search our weather history database for the weather conditions in past years. The results will help you decide how hot, cold, wet, or windy it might be!

Date:

Astronomy

Mar. 16, 2013 Rise Set
Actual Time 6:53 AM PDT 6:52 PM PDT
Civil Twilight 6:27 AM PDT 7:18 PM PDT
Nautical Twilight 5:57 AM PDT 7:48 PM PDT
Astronomical Twilight 5:27 AM PDT 8:18 PM PDT
Moon 9:33 AM PDT (3/16) 11:56 PM PDT (3/16)
Length of Visible Light 12h 51m
Length of Day
11h 59m
Waxing Crescent, 24% of the Moon is Illuminated
Mar 16
Waxing Crescent
Mar 19
First Quarter
Mar 27
Full
Apr 2
Last Quarter
Apr 10
New

Hourly Weather History & Observations

Time (PDT) Temp. Dew Point Humidity Pressure Visibility Wind Dir Wind Speed Gust Speed Precip Events Conditions
12:52 AM 66.9 °F 16.0 °F 14% 29.78 in 10.0 mi ENE 6.9 mph - N/A   Clear
1:52 AM 63.0 °F 18.0 °F 18% 29.79 in 10.0 mi Calm Calm - N/A   Clear
2:52 AM 57.9 °F 19.0 °F 22% 29.80 in 10.0 mi Calm Calm - N/A   Clear
3:52 AM 57.0 °F 19.0 °F 23% 29.79 in 10.0 mi Calm Calm - N/A   Clear
4:52 AM 61.0 °F 18.0 °F 19% 29.78 in 10.0 mi ENE 6.9 mph - N/A   Clear
5:52 AM 60.1 °F 18.0 °F 20% 29.80 in 10.0 mi North 8.1 mph - N/A   Clear
7:52 AM 55.9 °F 19.9 °F 25% 29.84 in 10.0 mi SSE 4.6 mph - N/A   Clear
8:52 AM 68.0 °F 18.0 °F 15% 29.83 in 10.0 mi North 11.5 mph - N/A   Clear
9:52 AM 71.1 °F 16.0 °F 12% 29.85 in 10.0 mi NNE 11.5 mph - N/A   Clear
10:52 AM 73.9 °F 15.1 °F 11% 29.84 in 10.0 mi NNE 12.7 mph - N/A   Clear
11:52 AM 75.9 °F 12.9 °F 9% 29.81 in 10.0 mi NNE 8.1 mph - N/A   Clear
12:52 PM 78.1 °F 12.9 °F 8% 29.80 in 10.0 mi NNE 8.1 mph - N/A   Clear
1:52 PM 78.1 °F 12.0 °F 8% 29.77 in 10.0 mi Variable 4.6 mph - N/A   Clear
2:52 PM 80.1 °F 10.0 °F 7% 29.75 in 10.0 mi WSW 11.5 mph 20.7 mph N/A   Clear
3:52 PM 80.1 °F 8.1 °F 6% 29.71 in 10.0 mi WSW 6.9 mph - N/A   Clear
4:52 PM 78.1 °F 1.0 °F 5% 29.71 in 10.0 mi WNW 12.7 mph - N/A   Clear
5:52 PM 75.9 °F 7.0 °F 7% 29.71 in 10.0 mi SW 11.5 mph - N/A   Clear
6:52 PM 73.0 °F 8.1 °F 8% 29.70 in 10.0 mi WSW 4.6 mph - N/A   Clear
7:52 PM 64.9 °F 12.0 °F 13% 29.72 in 10.0 mi East 4.6 mph - N/A   Clear
8:52 PM 64.0 °F 10.9 °F 13% 29.70 in 10.0 mi ENE 4.6 mph - N/A   Clear
9:52 PM 60.1 °F 14.0 °F 16% 29.70 in 10.0 mi NNE 5.8 mph - N/A   Clear
10:52 PM 63.0 °F 14.0 °F 15% 29.68 in 10.0 mi NNE 4.6 mph - N/A   Clear
11:52 PM 64.9 °F 12.0 °F 13% 29.71 in 10.0 mi NNE 13.8 mph - N/A   Clear